Location: La Brionne
(46.1728°N, 1.7849°E)
Time: 07:56:53
(UTC+00:00)

Cosmos 1844 Rocket - Pass Details

Date: 16 June 2021
Orbit: 823 x 846 km, 71.0° (Epoch: 31 July)

Event Time Altitude Azimuth Distance (km) Brightness Sun altitude
Rises 20:34:18 0° 338° (NNW) 3,410 7.3 -7.1°
Reaches altitude 10° 20:36:56 10° 346° (NNW) 2,474 6.2 -7.4°
Maximum altitude 20:42:13 38° 54° (NE) 1,268 3.6 -8.1°
Drops below altitude 10° 20:47:29 10° 122° (ESE) 2,465 4.5 -8.7°
Enters shadow 20:47:34 10° 123° (ESE) 2,495 4.5 -8.7°
